Cluster Samba

operational
NORAD ID: 26410 Int'l Des: 2000-041 Owner: ESA Country: I-ESA
HEOELLIPTICALRETROGRADEHEO_ELLIPTICAL

关于 Cluster Samba

正在加载描述...

实时位置

正在加载3D地球...

即将过境

高度历史

Altitude vs Time

uPlot chart will show altitude changes over time

两行轨道根数

1 26410U 00041A 26063.25310772 .00003639 00000-0 00000+0 0 9992
2 26410 148.9920 34.5676 8908777 250.6745 359.7226 0.44785609 19832
Epoch: Mar 4, 2026 • Age: -20 hours

当前状态

高度 129773.6 km
速度 0.58 km/s
星下点 29.16°N, 109.1°E
发射日期 Jul 16, 2000
运行时间 25.6 years
类型 other

技术详情

分类 Payload
质量 1186.00 kg
干质量 550.00 kg
总质量 1186.00 kg
长度 1.30 m
直径 2.90 m
跨度 100.00 m
形状 Cyl + 4 Ant
制造商 ASTDF
平台类型 Cluster
阶段状态 In Orbit
所有者/国家 ESA/I-ESA

大型星座

Loading constellations...